LPA502 UGTB-VIDP

Flight info

Callsign LPA502
Flight time N/A
Altitude 37000
Route DISKA M737 VERCA M747 BODKA B375 GIRUN G792 MSD B411 PAMTU P628 BURTA/N0484F390 P628 RK G202 MERUN G452 LKA LKA7A
Aircraft B77W/H-SDE1E2E3FGHIJ2J3J4J5M1RWXY/LB1D1

Departure

Time 2026-04-26 17:42
Airport Tbilisi International Airport (UGTB)

Arrival

Time N/A
Airport Indira Gandhi International Airport (VIDP)
Time Latitude Longitude Altitude Speed Heading
2026-04-26 16:30 41.66792 44.96178 1531 ft 0 kts 223°
2026-04-26 17:15 41.66793 44.96179 1531 ft 1 kts 223°
2026-04-26 17:15 41.66803 44.96192 1523 ft 3 kts 223°
2026-04-26 17:15 41.66818 44.96211 1523 ft 3 kts 223°
2026-04-26 17:16 41.66830 44.96226 1523 ft 2 kts 223°
2026-04-26 17:16 41.66841 44.96242 1523 ft 3 kts 253°
2026-04-26 17:16 41.66841 44.96263 1523 ft 3 kts 306°
2026-04-26 17:16 41.66828 44.96282 1523 ft 2 kts 315°
2026-04-26 17:17 41.66823 44.96289 1523 ft 0 kts 313°
2026-04-26 17:24 41.66834 44.96274 1524 ft 6 kts 313°
2026-04-26 17:24 41.66881 44.96205 1524 ft 12 kts 310°
2026-04-26 17:24 41.66938 44.96117 1523 ft 15 kts 312°
2026-04-26 17:25 41.67021 44.95998 1523 ft 18 kts 313°
2026-04-26 17:25 41.67095 44.95862 1527 ft 18 kts 310°
2026-04-26 17:25 41.67181 44.95740 1524 ft 18 kts 314°
2026-04-26 17:25 41.67268 44.95619 1522 ft 18 kts 314°
2026-04-26 17:26 41.67355 44.95498 1524 ft 18 kts 314°
2026-04-26 17:26 41.67438 44.95373 1525 ft 18 kts 310°
2026-04-26 17:26 41.67520 44.95248 1527 ft 18 kts 311°
2026-04-26 17:26 41.67605 44.95125 1522 ft 18 kts 314°
2026-04-26 17:27 41.67659 44.94983 1525 ft 18 kts 261°
2026-04-26 17:27 41.67625 44.94821 1524 ft 18 kts 253°
2026-04-26 17:27 41.67594 44.94692 1526 ft 10 kts 252°
2026-04-26 17:27 41.67576 44.94613 1527 ft 6 kts 252°
2026-04-26 17:28 41.67571 44.94597 1525 ft 0 kts 252°
2026-04-26 17:32 41.67571 44.94596 1525 ft 0 kts 252°
2026-04-26 17:32 41.67567 44.94579 1528 ft 4 kts 252°
2026-04-26 17:33 41.67560 44.94547 1528 ft 4 kts 251°
2026-04-26 17:33 41.67557 44.94536 1524 ft 0 kts 251°
2026-04-26 17:38 41.67555 44.94528 1524 ft 4 kts 251°
2026-04-26 17:38 41.67537 44.94457 1526 ft 10 kts 253°
2026-04-26 17:38 41.67534 44.94359 1523 ft 12 kts 288°
2026-04-26 17:39 41.67590 44.94264 1525 ft 15 kts 316°
2026-04-26 17:39 41.67674 44.94159 1524 ft 17 kts 316°
2026-04-26 17:39 41.67766 44.94094 1523 ft 13 kts 347°
2026-04-26 17:39 41.67783 44.94048 1526 ft 5 kts 229°
2026-04-26 17:40 41.67755 44.94058 1522 ft 0 kts 137°
2026-04-26 17:41 41.67669 44.94166 1524 ft 40 kts 137°
2026-04-26 17:41 41.67219 44.94734 1521 ft 138 kts 137°
2026-04-26 17:42 41.66302 44.95905 1574 ft 221 kts 135°
2026-04-26 17:42 41.65107 44.97455 2475 ft 240 kts 135°
2026-04-26 17:42 41.63935 44.98976 4253 ft 242 kts 137°
2026-04-26 17:42 41.62663 45.00539 4993 ft 254 kts 138°
2026-04-26 17:43 41.61331 45.02173 5641 ft 265 kts 138°
2026-04-26 17:43 41.59955 45.03879 6384 ft 273 kts 138°
2026-04-26 17:43 41.58556 45.05627 7162 ft 277 kts 138°
2026-04-26 17:43 41.57137 45.07406 7804 ft 282 kts 138°
2026-04-26 17:44 41.56197 45.08603 8010 ft 283 kts 135°
2026-04-26 17:44 41.54980 45.10704 8001 ft 287 kts 124°
2026-04-26 17:44 41.53934 45.12985 7990 ft 288 kts 122°
2026-04-26 17:44 41.52911 45.15283 7988 ft 288 kts 123°
2026-04-26 17:45 41.51875 45.17574 8320 ft 288 kts 123°
2026-04-26 17:45 41.50820 45.19870 9143 ft 292 kts 124°
2026-04-26 17:45 41.49738 45.22188 9958 ft 296 kts 124°
2026-04-26 17:45 41.48629 45.24539 10557 ft 307 kts 124°
2026-04-26 17:46 41.47439 45.27048 10760 ft 333 kts 124°
2026-04-26 17:46 41.46137 45.29734 10945 ft 357 kts 128°
2026-04-26 17:46 41.44518 45.32353 11291 ft 374 kts 135°
2026-04-26 17:46 41.42696 45.34899 11951 ft 383 kts 136°
2026-04-26 17:47 41.40818 45.37456 12738 ft 389 kts 136°
2026-04-26 17:47 41.39565 45.39172 13323 ft 392 kts 136°
2026-04-26 17:47 41.37032 45.42697 14464 ft 396 kts 135°
2026-04-26 17:47 41.35130 45.45383 15233 ft 401 kts 135°
2026-04-26 17:48 41.33216 45.48104 15984 ft 405 kts 135°
2026-04-26 17:48 41.31278 45.50867 16723 ft 410 kts 135°
2026-04-26 17:48 41.29322 45.53656 17466 ft 415 kts 135°
2026-04-26 17:48 41.27342 45.56477 18197 ft 420 kts 136°
2026-04-26 17:49 41.25338 45.59326 18849 ft 424 kts 136°
2026-04-26 17:49 41.23338 45.62229 19501 ft 429 kts 132°
2026-04-26 17:49 41.21590 45.65470 20162 ft 435 kts 124°
2026-04-26 17:49 41.20149 45.69038 20828 ft 441 kts 117°
2026-04-26 17:50 41.19038 45.72859 21464 ft 446 kts 112°
2026-04-26 17:50 41.18026 45.76770 22067 ft 450 kts 111°
2026-04-26 17:50 41.17020 45.80727 22677 ft 455 kts 111°
2026-04-26 17:50 41.15998 45.84721 23217 ft 460 kts 112°
2026-04-26 17:51 41.14951 45.88759 23714 ft 465 kts 112°
2026-04-26 17:51 41.13884 45.92827 24197 ft 469 kts 112°
2026-04-26 17:51 41.12801 45.96921 24716 ft 471 kts 112°
2026-04-26 17:51 41.11748 46.00886 25201 ft 473 kts 112°
2026-04-26 17:52 41.10648 46.05014 25682 ft 476 kts 112°
2026-04-26 17:52 41.09539 46.09167 26136 ft 479 kts 113°
2026-04-26 17:52 41.08423 46.13344 26567 ft 482 kts 113°
2026-04-26 17:52 41.07300 46.17544 27102 ft 484 kts 113°
2026-04-26 17:53 41.06173 46.21753 27551 ft 486 kts 113°
2026-04-26 17:53 41.05036 46.25993 27962 ft 490 kts 113°
2026-04-26 17:53 41.03889 46.30255 28346 ft 493 kts 113°
2026-04-26 17:54 41.01583 46.38874 29058 ft 500 kts 113°
2026-04-26 17:54 41.00435 46.43169 29371 ft 503 kts 112°
2026-04-26 17:54 40.99266 46.47540 29719 ft 505 kts 112°
2026-04-26 17:54 40.98090 46.51931 30081 ft 506 kts 113°
2026-04-26 17:55 40.96911 46.56320 30473 ft 506 kts 113°
2026-04-26 17:55 40.95735 46.60693 30877 ft 504 kts 113°
2026-04-26 17:55 40.94559 46.65056 31270 ft 503 kts 113°
2026-04-26 17:55 40.93380 46.69418 31632 ft 503 kts 113°
2026-04-26 17:56 40.92202 46.73770 31963 ft 502 kts 113°
2026-04-26 17:56 40.89854 46.82424 32760 ft 499 kts 113°
2026-04-26 17:57 40.87494 46.91054 33360 ft 500 kts 113°
2026-04-26 17:57 40.86309 46.95367 33679 ft 499 kts 113°
2026-04-26 17:57 40.85125 46.99674 34004 ft 498 kts 113°
2026-04-26 17:57 40.83983 47.03825 34265 ft 498 kts 113°
2026-04-26 17:58 40.80434 47.16684 35016 ft 497 kts 114°
2026-04-26 17:59 40.78042 47.25248 35465 ft 497 kts 114°
2026-04-26 17:59 40.76844 47.29526 35736 ft 496 kts 114°
2026-04-26 17:59 40.75651 47.33785 36066 ft 494 kts 114°
2026-04-26 17:59 40.74462 47.38024 36384 ft 491 kts 115°
2026-04-26 18:00 40.73276 47.42244 36596 ft 492 kts 115°
2026-04-26 18:00 40.72082 47.46487 36682 ft 495 kts 115°
2026-04-26 18:00 40.69674 47.55036 36870 ft 500 kts 115°
2026-04-26 18:01 40.67243 47.63653 37027 ft 503 kts 115°
2026-04-26 18:01 40.64801 47.72286 37055 ft 503 kts 115°
2026-04-26 18:02 40.62773 47.79431 37056 ft 500 kts 115°
2026-04-26 18:02 40.59931 47.89411 37062 ft 497 kts 115°